Regional Weather Roundup
Issued by NWS

Home | Current Version | Previous Version | Graphics & Text | Print | Product List | Glossary On
Versions: 1 2 3 4 5 6 7 8 9 10 11 12 13 14 15 16 17 18 19 20 21 22 23 24 25 26 27 28 29 30 31 32 33 34 35 36 37 38 39 40 41 42 43 44 45 46 47 48 49 50
000
ASUS43 KMKX 282121
RWRWI

WISCONSIN REGIONAL WEATHER ROUNDUP
NATIONAL WEATHER SERVICE MILWAUKEE/SULLIVAN WI
400 PM CDT THU AUG 28 2014

NOTE: "FAIR" INDICATES FEW OR NO CLOUDS BELOW 12,000 FEET WITH NO
SIGNIFICANT WEATHER AND/OR OBSTRUCTIONS TO VISIBILITY.

WIZ001-002-006>008-014>016-023>028-282200-
NORTHWEST WISCONSIN

CITY           SKY/WX    TMP DP  RH WIND       PRES   REMARKS
SUPERIOR ARPT  PTSUNNY   67  59  74 NE7       30.02S
ASHLAND        PTSUNNY   71  60  68 N9        30.04F
HAYWARD        CLOUDY    71  58  63 SE7       30.05F
SIREN          CLOUDY    73  59  62 SE8       30.02S
RICE LAKE      CLOUDY    71  59  66 E7        30.04F
LADYSMITH      PTSUNNY   71  59  65 SE7       30.07F
EAU CLAIRE     LGT RAIN  69  65  86 SE7       30.03S
MENOMONIE      LGT RAIN  69  65  89 SE7       30.03S
NEW RICHMOND   CLOUDY    69  62  79 E7        30.01F
OSCEOLA        CLOUDY    70  63  78 SE6       30.03F
$$

WIZ003>005-009-010-017-018-282200-
NORTH CENTRAL WISCONSIN

CITY           SKY/WX    TMP DP  RH WIND       PRES   REMARKS
WOODRUFF       CLOUDY    72  55  55 S8        30.08F
RHINELANDER    CLOUDY    69  55  60 VRB6      30.10F
EAGLE RIVER    PTSUNNY   70  51  50 S6        30.08F
LAND O LAKES   PTSUNNY   71  49  44 CALM      30.09F
PHILLIPS       CLOUDY    69  57  66 S6        30.07S
TOMAHAWK       CLOUDY    69  58  68 S3        30.09S
MEDFORD        CLOUDY    65  60  81 SE5       30.08S
MERRILL        CLOUDY    68  60  74 S5        30.09S
$$

WIZ029-030-035-036-043>047-282200-
CENTRAL WISCONSIN

CITY           SKY/WX    TMP DP  RH WIND       PRES   REMARKS
WAUSAU         CLOUDY    69  60  73 SE7       30.06F
MOSINEE        CLOUDY    66  63  88 SE5       30.09F
MARSHFIELD     CLOUDY    71  61  70 SE6       30.06F
STEVENS POINT  CLOUDY    67  60  77 E8        30.08F
WAUPACA        CLOUDY    73  61  66 SE8       30.08F
WAUTOMA        LGT RAIN  73  61  66 E6        30.07F
WISC RAPIDS    CLOUDY    72  60  66 S7        30.07F
CAMP DOUGLAS   CLOUDY    71  66  84 SE7       30.05F
$$

WIZ011>013-019>022-031-037>040-048>050-282200-
NORTHEAST WISCONSIN

CITY           SKY/WX    TMP DP  RH WIND       PRES   REMARKS
ANTIGO         CLOUDY    67  59  74 S8        30.10S
STURGEON BAY   PTSUNNY   64  54  68 S10       30.12F
GREEN BAY      CLOUDY    69  59  70 SE12      30.10F
MANITOWOC      CLOUDY    67  55  65 S10       30.12F
APPLETON       CLOUDY    70  57  64 SE8       30.10F
CLINTONVILLE   CLOUDY    70  59  68 SE7       30.09S
OSHKOSH        CLOUDY    70  58  65 SE8       30.08F
$$

WIZ032>034-041-042-053>061-282200-
SOUTHWEST WISCONSIN

CITY           SKY/WX    TMP DP  RH WIND       PRES   REMARKS
LA CROSSE      CLOUDY    70  65  84 SE6       30.01F
SPARTA         CLOUDY    70  63  78 E7        30.04F
VIROQUA        CLOUDY    68  67  96 SE7       30.04S
BOSCOBEL       CLOUDY    74  64  71 VRB5      30.02F
PRAIRIE DU CHI CLOUDY    73  62  67 E9        30.00F
PLATTEVILLE    FAIR      72  65  79 E12       30.04S
$$

WIZ056-057-062-063-064-067-068-282200-
SOUTH CENTRAL WISCONSIN

CITY           SKY/WX    TMP DP  RH WIND       PRES   REMARKS
BARABOO/DELLS  LGT RAIN  71  60  67 E5        30.05F
LONE ROCK      CLOUDY    76  63  64 SE7       30.04S
WATERTOWN      CLOUDY    70  58  65 E9        30.07F
MADISON        LGT RAIN  73  59  61 SE13      30.05F
MIDDLETON      FAIR      73  59  63 SE10      30.05F
MONROE         CLOUDY    72  61  68 E5        30.06S
JANESVILLE     PTSUNNY   75  55  50 SE12      30.06F
$$

WIZ051-052-058>065-066-070>072-282200-
SOUTHEAST WISCONSIN

CITY           SKY/WX    TMP DP  RH WIND       PRES   REMARKS
MILWAUKEE      CLOUDY    68  55  63 E8        30.11F
WAUKESHA       MOSUNNY   66  52  59 SE9       30.12F
MILWAUKEE/TIMM SUNNY     70  48  46 SE8       30.12F
RACINE         PTSUNNY   69  57  65 E12       30.12F
BURLINGTON     PTSUNNY   70  51  49 E10       30.09F
KENOSHA        PTSUNNY   71  59  65 NE12      30.10F
FOND DU LAC    CLOUDY    70  56  61 SE9       30.09F
SHEBOYGAN      CLOUDY    67  53  61 S8        30.13F
WEST BEND      CLOUDY    66  52  59 SE6       30.11F
JUNEAU         CLOUDY    69  57  64 E10       30.09F
$$

LSZ147-162-282200-
LAKE SUPERIOR

STATION/POSITION TIME  TEMP    WIND        PRES    WAVE
                       AIR SEA DIR/SP/G            HT/PER
                 (UTC) (F)     (DEG/KT/KT) (MB)    (FT/S)
W MID LAKE BUOY  2050   60 60   70/  4/  6 1018.1F   0
DEVILS ISLAND    2100   62      70/ 10/ 12 1017.4F
PORT WING        2040   66      40/ 15/ 17 1016.9F
SAXON HARBOR     2000   66      50/ 11/ 15 1017.9F
$$

LMZ867-665-643>646-282200-
LAKE MICHIGAN

STATION/POSITION TIME  TEMP    WIND        PRES    WAVE
                       AIR SEA DIR/SP/G            HT/PER
                 (UTC) (F)     (DEG/KT/KT) (MB)    (FT/S)
N MID LAKE BUOY  2050   63 66  110/  4/  6 1020.7F   0
NORTHPORT PIER   2000   65     150/ 10/ 17 1020.3F
SISTER BAY       2011   67     190/ 14/ 17   N/A
KEWAUNEE LAKESHO 2100   65     170/ 10/ 12 1019.1F
SHEBOYGAN LAKESH 2100   65 70  160/  9/ 10 1020.3F
ATWATER BUOY     2100   67      90/  6/ 10 1020.6F
MILWAUKEE LAKESH 2100   67      90/  7/  9   N/A
S MID LAKE BUOY  2050   68 69   50/ 10/ 12 1019.2F
KENOSHA   LAKESH 2100   68      90/  9/ 11 1019.0S
$$

TC  - TEMPERATURE IN CELSIUS
VSB - VISIBILITY IN STATUTE MILES
WCI - WIND CHILL INDEX
HX  - HEAT INDEX




USA.gov is the U.S. government's official web portal to all federal, state and local government web resources and services.